Location: Vaughan
(31.9146°N, 97.1736°W)
Time: 21:52:54
(UTC+00:00)

Cosmos 2369 - Pass Details

Date: 10 December 2025
Orbit: 839 x 853 km, 71.0° (Epoch: 20 January)

Event Time Altitude Azimuth Distance (km) Brightness Sun altitude
Rises 01:33:46 0° 213° (SSW) 3,402 7.5 -26.7°
Reaches altitude 10° 01:36:17 10° 218° (SW) 2,471 6.7 -27.2°
Maximum altitude 01:41:46 50° 293° (WNW) 1,077 4.4 -28.3°
Enters shadow 01:43:59 33° 348° (NNW) 1,402 4.8 -28.8°
